Chadron, NE

5:38 AM MDT on March 29, 2017 (GMT -0600)
Chadron Municipal

Weather History for KCDR - August, 2013

Change the Weather History Date:

Saturday, August 10, 2013

  Actual Average Record
Temperature  
Mean Temperature 74 °F 74 °F  
Max Temperature 90 °F 90 °F 105 °F (1936)
Min Temperature 58 °F 57 °F 44 °F (1960)
Degree Days  
Heating Degree Days 0 0  
Month to date heating degree days 0 0  
Since 1 June heating degree days 58 91  
Since 1 July heating degree days 0 10  
Cooling Degree Days 9 9  
Month to date cooling degree days 81 95  
Year to date cooling degree days 539 499  
Since 1 June cooling degree days 511 479  
Growing Degree Days 24 (Base 50)    
Moisture  
Dew Point 57 °F    
Average Humidity 62    
Maximum Humidity 97    
Minimum Humidity 26    
Precipitation  
Precipitation 0.04 in 0.04 in 1.52 in (1926)
Month to date precipitation 0.11 0.54  
Year to date precipitation 11.03 12.83  
Sea Level Pressure  
Sea Level Pressure 30.05 in    
Wind  
Wind Speed 4 mph (NNW)    
Max Wind Speed 20 mph    
Max Gust Speed 25 mph    
Visibility 10 miles    
Events Rain , Thunderstorm    
T = Trace of Precipitation, MM = Missing Value Source: NWS Daily Summary

Daily Weather History Graph

Daily Weather History Graph

Search for Another Location

Airport or City:

Trip Planner

Search our weather history database for the weather conditions in past years. The results will help you decide how hot, cold, wet, or windy it might be!

Date:

Astronomy

Aug. 10, 2013 Rise Set
Actual Time 5:53 AM MDT 8:01 PM MDT
Civil Twilight 5:22 AM MDT 8:32 PM MDT
Nautical Twilight 4:44 AM MDT 9:10 PM MDT
Astronomical Twilight 4:02 AM MDT 9:51 PM MDT
Moon 9:49 AM MDT (8/10) 9:36 PM MDT (8/10)
Length of Visible Light 15h 09m
Length of Day
14h 07m
Waxing Crescent, 14% of the Moon is Illuminated
Aug 10
Waxing Crescent
Aug 14
First Quarter
Aug 20
Full
Aug 28
Last Quarter
Sep 5
New

Hourly Weather History & Observations

Time (MDT) Temp. Heat Index Dew Point Humidity Pressure Visibility Wind Dir Wind Speed Gust Speed Precip Events Conditions
12:53 AM 62.1 °F - 59.0 °F 90% 30.15 in 10.0 mi West 5.8 mph - 0.00 in   Overcast
1:43 AM 62.6 °F - 59.0 °F 88% 30.21 in 6.0 mi Variable 4.6 mph - 0.04 in Rain , Thunderstorm Light Thunderstorms and Rain
1:53 AM 62.1 °F - 60.1 °F 93% 30.14 in 10.0 mi NNE 5.8 mph - 0.04 in Thunderstorm Thunderstorm
2:31 AM 60.8 °F - 60.8 °F 100% 30.17 in 10.0 mi SE 11.5 mph - N/A   Scattered Clouds
2:53 AM 61.0 °F - 59.0 °F 93% 30.10 in 10.0 mi ESE 5.8 mph - N/A   Clear
3:53 AM 61.0 °F - 59.0 °F 93% 30.09 in 10.0 mi Calm Calm - N/A   Clear
4:53 AM 61.0 °F - 59.0 °F 93% 30.09 in 10.0 mi NW 4.6 mph - N/A   Mostly Cloudy
5:53 AM 59.0 °F - 57.9 °F 96% 30.10 in 10.0 mi NW 3.5 mph - N/A   Clear
6:53 AM 60.1 °F - 57.9 °F 93% 30.11 in 10.0 mi Calm Calm - N/A   Clear
7:53 AM 63.0 °F - 59.0 °F 87% 30.12 in 10.0 mi Calm Calm - N/A   Clear
8:53 AM 69.1 °F - 57.9 °F 68% 30.10 in 10.0 mi Calm Calm - N/A   Clear
9:53 AM 71.1 °F - 57.0 °F 61% 30.10 in 10.0 mi Calm Calm - N/A   Clear
10:53 AM 75.0 °F - 55.9 °F 51% 30.08 in 10.0 mi Variable 3.5 mph - N/A   Clear
11:53 AM 80.1 °F 80.4 °F 57.0 °F 45% 30.06 in 10.0 mi Calm Calm - N/A   Clear
12:53 PM 82.9 °F 82.4 °F 57.0 °F 41% 30.03 in 10.0 mi Calm Calm - N/A   Clear
1:53 PM 87.1 °F 85.7 °F 55.9 °F 35% 30.00 in 10.0 mi Variable 3.5 mph - N/A   Clear
2:53 PM 88.0 °F 85.7 °F 53.1 °F 30% 29.98 in 10.0 mi Calm Calm - N/A   Clear
3:53 PM 88.0 °F - 48.9 °F 26% 29.96 in 10.0 mi West 5.8 mph - N/A   Clear
4:53 PM 88.0 °F - 48.0 °F 25% 29.95 in 10.0 mi Calm Calm - N/A   Clear
5:53 PM 88.0 °F - 50.0 °F 27% 29.94 in 10.0 mi North 3.5 mph - N/A   Clear
6:53 PM 84.9 °F 83.2 °F 53.1 °F 33% 29.94 in 10.0 mi NNE 5.8 mph - N/A   Clear
7:53 PM 78.1 °F - 59.0 °F 52% 29.95 in 10.0 mi NE 4.6 mph - N/A   Clear
8:53 PM 72.0 °F - 60.1 °F 66% 29.96 in 10.0 mi Calm Calm - N/A   Clear
9:53 PM 69.1 °F - 60.1 °F 73% 29.99 in 10.0 mi North 4.6 mph - N/A   Clear
10:53 PM 70.0 °F - 62.1 °F 76% 30.00 in 10.0 mi SW 9.2 mph 21.9 mph N/A   Clear
11:49 PM 71.6 °F - 60.8 °F 69% 30.12 in 10.0 mi NW 11.5 mph - N/A   Scattered Clouds
11:53 PM 73.0 °F - 59.0 °F 61% 30.04 in 10.0 mi NW 12.7 mph - N/A   Scattered Clouds